La Jose, PA (15753)

1:48 AM EST on February 09, 2016 (GMT -0500)
NE Indiana County Pa. | | Change Station
CLOSE
Current Station
Personal Weather Station
Location: Cherry Tree, PA
Elevation: 1601 ft
Nearby Weather Stations

Elev 1601 ft 40.78 °N, 78.81 °W | Updated 8 seconds ago

Overcast
Overcast
33.2 °F
Feels Like 33 °F
N
0.0
Wind Variable Wind from ESE
Gusts 0.0 mph

Today
High -- | Low -- °F
--% Chance of Precip.
Yesterday
High -- | Low -- °F
Precip. -- in
Pressure 29.54 in
Visibility 3.0 miles
Clouds Mostly Cloudy 900 ft
Overcast 1700 ft
Windchill 33 °F
Dew Point 32 °F
Humidity 94%
Rainfall 0.00 in
Snow Depth Not available.
7:16 AM 5:41 PM
New Moon, 1% visible
SPECI KFIG 090638Z AUTO 00000KT 3SM -SN BR BKN009 OVC017 M01/M02 A2954 RMK AO2 UPE12SNB12 CIG 006V012 P0000 T10061017
Pressure 29.54 in
Visibility 3.0 miles
Clouds Mostly Cloudy 900 ft
Overcast 1700 ft
Windchill 33 °F
Dew Point 32 °F
Humidity 94%
Rainfall 0.00 in
Snow Depth Not available.
7:16 AM 5:41 PM
New Moon, 1% visible
SPECI KFIG 090638Z AUTO 00000KT 3SM -SN BR BKN009 OVC017 M01/M02 A2954 RMK AO2 UPE12SNB12 CIG 006V012 P0000 T10061017

10-Day Weather Forecast

Almanac

Astronomy

Feb. 09, 2016 Rise Set
Actual Time
Civil Twilight
Nautical Twilight
Astronomical Twilight
Moon
Length of Visible Light
Length of Day
Tomorrow will be .
, % of the Moon is Illuminated

Today's Extremes

State Highs State Lows

Community

WunderPhotos

Upload Photos

1,891,571 photos uploaded!

WunderBlog® & News

Nearby

Air Quality

  Air Quality AQ Index Pollutant
Not available.

Snow Depth

Station Depth Elevation

Earthquake Activity

City Distance Mag. Time & Date
Minimum magnitude displayed is 2.5.

Coastal Water Temperatures

Place Temperature

Stations

Nearby Weather Stations

Station Location Temp. Windchill Dew Point Humidity Wind Precip. Elev Updated Type
                   

Watches & Warnings

There are currently no watches in effect.